Showing default

EXO-0, 59175

Orbit data source: Space-Track

EXO-0, 59175 is a payload satellite owned by Exotrail (FR) in SSO that was launched on Sat, 11 Nov 2023 UTC via an FALCON 9 launch vehicle from the Air Force Western Test Range (AFWTR). Payload-class satellites include a variety of spacecraft equipped with specific instruments for various scientific and technological missions. These include communications satellites like Starlink; space stations such as the ISS; scientific satellites like the Hubble; Earth observation satellites from companies like Planet Labs, Umbra, and HawkEye 360; GPS; miniature CubeSats for education and research; and military/defense satellites.

Loading next visibility...
Identifier
59175, 2023-174DK
Orbit
SSO
Country
Flag of FRFR
Related business
Manufacturer
Endurosat
Mission
Operational Commercial Technology
Bus & Motor
CUBESAT 8U, Unknown motor
Mass
~20 kg wet, ~20 kg dry
Launch date (UTC)
2023-11-11 (2 years ago)
Launch vehicle
FALCON 9
Launch site
Air Force Western Test Range (AFWTR)
Object type
Payload
Rocket body
Debris
Shape & HBR
Box, 0.2 m
Radar Cross Section
0.070 m², Medium (>0.1 m² and < 1m²)

Expand to show TLE details & history
Last TLE update: 13 hours ago

TLE from 13 hours ago
0 EXO-0
1 59175U 23174DK  26126.46117183  .00008344  00000-0  25594-3 0  9999
2 59175  97.3813 206.6071 0007864 326.7020  33.3727 15.33987889138645
Epoch: 2026-05-06T11:04Z
TLE epoch observation values (Epoch: 2026-05-06T11:04:05.246Z)
Latitude
-0.00001°
Longitude
176.26391°
Altitude
462.545 km
Speed
7.638 km/s
True Right ascension
13h 46m 25s
True Declination
0° 00' 00"
Sunlit
Object was in full shadow at epoch
Visualization orbit readout
Latitude
Unknown
Longitude
Unknown
Altitude
Unknown
Speed
Unknown
Apparent Right ascension
Unknown
Apparent Declination
Unknown
Sunlit
N/A
Visualization observer readout
Local Sidereal Time
08:29:03
Azimuth
Unknown
Elevation
Unknown
Doppler factor
Unknown
Orbital elements
Apogee altitude
466.253 km
Perigee altitude
455.496 km
Semi-major axis
6,839.012 km
Eccentricity
0.00079
Inclination
97.3813°
RAAN
206.6071°
Arg. of periapsis
326.702°
True anomaly
33.42231°
Mean anomaly
33.3727°
Eccentric anomaly
33.3975°
Mean motion
3.83754 °/min
Orbital period
93.81 mins
BSTAR
0.00025594
Loading maneuver chart data...
Computing Atmospheric mass density...
Loading historical data...
Loading historical data...
Loading historical data...
Loading historical data...
Loading historical data...
Loading historical data...
Loading historical data...

Documentation

Showing up to 5 results
|